Tracking 35274 objects as of 10-Sep-2026
HD Live streaming from Space Station
objects crossing your sky now

SL-6 DEB


SL-6 DEB is no longer on orbit


NORAD ID: 19724
Int'l Code: 1988-112G
Launch date: December 22, 1988
Source: Commonwealth of Independent States (former USSR) (CIS)
Launch site: PLESETSK MISSILE AND SPACE COMPLEX (PKMTR)
Decay date: 1988-12-24

Note: This is SATELLITE DEBRIS
Your satellite tracking list
Your tracking list is empty




NASA's NSSDC Master Catalog

Two Line Element Set (TLE):
1 19724U 88112  G 88359.15293505  .16911616 +35800-4 +61943-2 0  9992
2 19724 062.8016 249.3784 0116740 127.4237 237.3209 16.09464467000250
Source of the keplerian elements: AFSPC